EUTELSAT 36 WEST A

Last updated on Dec. 19, 2018, 12:08 a.m. UTC

1 27508U 02040A   18352.50619870  .00000006  00000-0  00000+0 0  9998
2 27508   0.4560  88.6382 0006269 241.0954  30.2476  0.98291583 59799
UTC
Height (km)
Latitude
Longitude
Inclination
Orbital Period
UTC large
Height (km)
Speed (km/s)
/
Latitude / Longitude
Inclination (degrees)
Orbital Period (minutes)
Azimuth
Elevation
Range (km)
Doppler Factor
iOS Compass Heading
iOS Angle

Next 30 passes for location: Hong Kong

Rise time Rise Azimuth (degrees) Set time Set Azimuth (degrees) Duration Max altitude (degrees)

No matching passes for this satellites